User: anonymous   Login
Location: Reading
(52.0000°N, 0.0000°E)
Time: 03:17:33
(UTC+01:00)
Language:

Iridium 41 - Orbit

View from above orbital plane
View from above orbital plane
View from above satellite
View from above satellite

Ground track
Ground track

The orbit data is extracted from the following two-line orbital elements,

1 25040U 97069B   15213.36851463  .00000302  00000-0  10089-3 0  9996
2 25040 086.3987 308.5930 0002398 091.5868 335.4592 14.34220006928014
Epoch (UTC): 01 August 2015 08:50:39
Eccentricity: 0.0002398
inclination: 86.3987°
perigee height: 776 km
apogee height: 779 km
right ascension of ascending node: 308.5930°
argument of perigee: 91.5868°
revolutions per day: 14.34220006
mean anomaly at epoch: 335.4592°
orbit number at epoch: 92801

The dashed part of the orbit path shows where the satellite is in the earth's shadow,  

DLR